Location: Lombard
(41.8800°N, 88.0080°W)
Time: 13:32:49
(UTC-05:00)

A-11 Canister half - Pass Details

Date: 05 February 2023
Orbit: 1512 x 1687 km, 47.2° (Epoch: 20 March)

Event Time Altitude Azimuth Distance (km) Brightness Sun altitude
Rises 11:31:26 0° 253° (WSW) 4,849 11.7 31.7°
Reaches altitude 10° 11:34:36 10° 255° (WSW) 3,841 11.3 31.8°
Maximum altitude 11:44:23 76° 342° (NNW) 1,618 9.5 32.1°
Drops below altitude 10° 11:53:49 10° 68° (ENE) 3,714 10.9 32.2°
Sets 11:56:51 0° 70° (ENE) 4,682 11.4 32.2°
